Temp
63 63 63 63 63 63 63 63 63 63 63 63 64 63 63 64 64 64 64 73 71 70 69 69 66 66 65 61 62 58 48 43 49 51 55 56 56 58 58 56 56 61 56 56 55
62 62 62 62 62 62 63 63 63 63 63 63 63 63 63 63 63 63 72 72 72 70 69 66 63 63 58 58 59 53 44 50 56 55 55 57 57 57 55 54 55 56 54 54 55
62 62 62 62 62 62 62 62 62 62 62 62 62 63 62 61 62 66 71 72 71 70 71 69 67 65 56 56 56 53 50 54 60 60 60 58 55 58 55 54 57 59 56 52 50
62 61 61 61 61 62 62 62 62 62 62 62 62 62 62 61 56 67 70 71 70 69 70 66 64 58 55 54 59 51 57 59 61 61 59 56 56 56 56 64 62 62 58 52 51
61 60 60 60 61 61 62 62 62 62 62 62 62 62 61 57 62 67 68 69 67 67 66 64 60 58 54 54 55 53 55 60 60 60 58 57 58 56 56 59 62 60 56 53 54
60 60 60 60 60 61 61 62 62 62 62 62 62 62 59 54 68 68 66 64 67 65 64 63 62 62 57 57 54 54 57 57 57 58 57 57 55 55 63 56 59 59 56 54 55
60 60 59 60 60 61 61 61 62 61 61 62 62 62 57 62 68 66 67 64 63 63 62 63 63 59 56 55 58 57 53 54 59 56 56 55 53 51 65 56 58 58 56 56 56
60 60 59 60 60 60 61 61 61 61 61 62 63 58 57 67 64 66 65 64 65 66 64 64 64 60 56 58 56 49 46 44 54 52 54 57 51 58 60 56 57 55 55 55 56
60 59 59 60 60 60 60 61 61 61 62 63 56 56 56 67 63 67 66 63 63 64 64 69 62 55 54 48 44 41 39 41 48 55 52 50 48 57 56 53 55 55 54 55 59
60 59 60 60 60 60 61 61 60 61 62 64 66 53 60 60 63 65 64 65 61 60 58 56 51 47 45 43 37 39 37 41 44 50 46 45 47 56 58 53 53 54 53 53 56
60 60 60 60 60 61 57 55 56 55 54 56 56 56 60 61 63 61 63 62 60 54 47 49 44 43 51 49 54 43 42 42 47 52 47 47 49 55 60 53 53 58 60 56 56
60 60 60 60 60 60 55 51 48 50 45 55 56 57 62 61 56 58 63 56 52 46 48 43 40 52 52 50 47 45 45 45 51 54 46 48 50 54 55 59 60 58 60 61 63
59 59 59 59 60 57 52 51 56 53 41 50 54 55 57 60 55 56 60 54 49 46 46 47 50 53 50 47 46 45 43 45 45 47 44 44 46 47 50 56 62 63 61 64 64
59 59 59 60 56 52 51 55 55 52 36 46 51 54 56 57 51 55 56 55 47 47 45 44 53 52 45 45 48 44 49 49 46 38 37 43 39 42 49 51 55 59 60 59 61
59 59 60 60 53 52 56 55 54 50 28 50 50 58 54 52 49 51 53 52 45 45 45 46 45 44 43 49 48 48 49 46 41 36 33 37 33 39 48 47 53 59 60 59 62
58 58 59 57 54 57 58 56 53 41 29 46 49 46 47 47 47 49 48 52 49 44 44 47 47 48 47 47 47 46 42 40 35 34 28 42 37 45 41 48 52 56 60 62 64
58 58 56 60 54 58 58 54 41 33 47 44 44 45 45 45 45 45 44 42 42 37 36 40 44 47 49 44 43 44 38 30 25 23 29 40 35 48 48 51 52 57 60 62 64
57 57 55 58 58 58 54 45 34 42 44 49 48 45 43 46 45 43 40 38 40 40 37 36 40 45 46 48 43 39 44 30 21 28 38 33 30 46 52 57 59 57 61 61 58
57 55 54 55 56 54 47 36 39 42 47 46 48 43 40 43 45 40 37 38 43 44 41 36 37 42 44 44 49 38 35 46 33 20 21 34 42 53 51 50 50 51 53 54 50
51 52 52 56 56 51 41 41 44 48 49 48 40 44 38 40 39 39 39 43 43 45 50 45 39 41 40 41 42 42 43 33 31 21 20 31 33 41 49 51 55 55 52 55 51
47 44 50 56 55 45 37 40 45 50 52 47 45 43 44 42 44 42 45 45 46 46 46 45 42 40 37 36 39 35 36 36 36 33 32 30 36 55 54 49 48 50 50 49 48
43 37 51 55 42 42 40 44 47 47 49 48 47 45 43 45 42 43 42 48 49 50 44 46 39 32 39 48 43 41 40 43 35 34 34 37 37 57 55 50 50 50 52 50 49
42 41 52 52 37 38 43 42 46 45 45 45 44 46 48 43 38 44 45 51 53 49 43 43 35 29 29 34 41 38 42 43 43 42 36 31 35 56 57 56 52 49 53 52 53
40 34 42 46 45 41 40 41 41 46 44 45 44 46 43 39 44 40 42 47 47 49 50 47 40 34 29 37 40 35 39 44 41 34 36 37 39 47 51 52 55 57 59 60 60
38 34 36 34 38 40 41 40 39 38 44 43 41 42 38 34 35 35 38 38 41 45 45 43 33 35 36 37 39 38 38 40 37 39 33 37 38 44 50 52 54 54 52 50 53
34 33 34 35 34 35 37 36 36 37 38 37 36 32 32 31 32 30 32 33 33 35 34 36 32 33 32 35 34 32 37 38 39 40 39 41 39 49 52 54 53 53 54 53 54
35 39 34 31 29 28 29 34 35 35 35 38 33 31 31 34 35 36 39 37 34 32 31 32 30 29 26 35 32 28 34 36 38 41 40 34 42 49 48 49 51 52 46 41 41
MSLP
1021.18 1020.95 1020.72 1020.39 1020.00 1019.65 1019.35 1019.10 1018.88 1018.64 1018.43 1018.13 1017.77 1017.53 1017.33 1017.03 1016.58 1016.49 1015.92 1014.24 1014.30 1014.52 1014.92 1015.25 1015.47 1015.44 1015.57 1015.93 1016.12 1016.63 1017.55 1017.36 1015.98 1014.66 1013.67 1013.15 1013.22 1012.98 1012.96 1013.27 1013.62 1013.87 1014.22 1014.67 1015.07
1021.33 1021.10 1020.84 1020.52 1020.18 1019.79 1019.42 1019.08 1018.73 1018.52 1018.32 1018.08 1017.81 1017.49 1017.21 1016.92 1016.65 1015.73 1013.75 1013.63 1013.85 1014.40 1015.04 1015.35 1015.55 1015.67 1015.99 1016.10 1016.29 1016.79 1017.37 1016.24 1014.71 1013.82 1013.39 1013.16 1013.22 1013.05 1013.28 1013.34 1013.54 1013.73 1014.31 1015.04 1015.58
1021.37 1021.07 1020.77 1020.49 1020.09 1019.77 1019.40 1018.99 1018.74 1018.47 1018.22 1017.90 1017.59 1017.28 1017.10 1016.93 1016.43 1014.32 1013.49 1013.64 1013.89 1014.23 1014.41 1014.87 1015.15 1015.57 1016.03 1016.10 1016.21 1016.39 1016.20 1015.12 1013.99 1013.47 1013.20 1013.11 1013.19 1013.04 1013.24 1013.25 1013.07 1013.27 1013.90 1015.12 1015.77
1021.39 1021.12 1020.79 1020.47 1020.10 1019.68 1019.37 1018.99 1018.62 1018.37 1018.15 1017.82 1017.51 1017.22 1016.89 1016.79 1015.76 1013.56 1013.53 1013.81 1014.02 1014.33 1014.57 1014.81 1015.18 1015.68 1015.92 1015.98 1015.54 1016.00 1015.01 1014.70 1013.77 1013.24 1013.22 1013.13 1012.98 1013.01 1012.95 1011.70 1011.80 1012.23 1013.01 1014.45 1015.13
1021.35 1021.16 1020.87 1020.48 1020.12 1019.72 1019.29 1018.86 1018.46 1018.13 1017.92 1017.68 1017.40 1017.18 1016.82 1016.65 1014.93 1013.59 1013.69 1013.94 1014.27 1014.49 1014.51 1014.80 1015.16 1015.31 1015.48 1015.33 1015.30 1015.24 1014.61 1014.18 1013.51 1013.43 1013.29 1013.22 1012.92 1012.99 1011.90 1011.44 1011.92 1012.20 1012.89 1013.48 1013.95
1021.19 1020.99 1020.70 1020.36 1020.01 1019.56 1019.13 1018.70 1018.29 1018.02 1017.69 1017.41 1017.30 1017.21 1017.01 1016.14 1013.36 1013.48 1013.84 1014.25 1014.11 1014.39 1014.47 1014.66 1014.65 1014.72 1015.13 1015.07 1015.19 1014.65 1014.45 1014.00 1013.62 1013.60 1013.51 1013.65 1012.91 1013.07 1010.28 1010.83 1011.42 1011.77 1012.20 1012.52 1012.71
1020.88 1020.72 1020.44 1020.06 1019.70 1019.20 1018.69 1018.28 1017.93 1017.67 1017.43 1017.19 1017.03 1017.21 1016.73 1014.24 1013.27 1013.56 1013.95 1014.14 1014.24 1014.29 1014.28 1014.29 1014.44 1014.81 1015.16 1015.07 1014.76 1014.73 1014.86 1014.28 1013.21 1013.30 1013.50 1013.53 1012.97 1012.25 1009.62 1010.86 1011.05 1011.29 1011.36 1011.53 1011.39
1020.62 1020.35 1020.06 1019.71 1019.29 1018.76 1018.10 1017.65 1017.27 1016.98 1016.86 1016.70 1016.70 1016.83 1015.58 1013.49 1013.47 1013.78 1013.94 1013.94 1014.00 1014.28 1014.58 1014.60 1014.57 1014.98 1015.36 1015.30 1015.34 1015.59 1015.53 1015.05 1012.77 1013.03 1013.14 1013.35 1012.01 1010.28 1010.01 1010.83 1010.53 1010.53 1010.67 1010.89 1010.40
1020.42 1020.15 1019.77 1019.44 1019.03 1018.44 1017.66 1016.85 1016.45 1016.07 1016.26 1016.30 1016.62 1016.41 1014.93 1013.56 1013.62 1013.39 1013.68 1013.99 1014.15 1014.38 1014.62 1014.78 1014.94 1015.43 1015.58 1016.01 1016.73 1016.38 1015.93 1015.27 1013.81 1012.70 1012.99 1013.05 1011.99 1010.02 1009.87 1010.49 1010.31 1010.07 1009.88 1009.89 1009.61
1020.24 1019.99 1019.64 1019.18 1018.63 1018.07 1017.15 1016.07 1015.88 1016.02 1016.32 1016.30 1016.09 1016.51 1014.21 1013.12 1012.90 1013.09 1013.37 1013.80 1014.32 1014.70 1015.09 1015.38 1015.88 1016.08 1016.25 1016.51 1016.56 1015.86 1016.13 1015.29 1014.54 1012.98 1013.12 1012.85 1011.40 1010.09 1009.58 1010.27 1010.12 1009.95 1009.49 1009.13 1008.73
1019.76 1019.69 1019.45 1019.03 1018.55 1017.84 1017.04 1016.46 1016.60 1016.70 1016.56 1016.08 1015.45 1014.38 1013.08 1012.85 1012.83 1012.98 1013.01 1013.65 1014.38 1015.14 1015.58 1015.87 1016.54 1016.25 1015.10 1015.07 1014.75 1015.45 1015.36 1014.75 1013.49 1012.63 1012.89 1012.14 1011.32 1010.62 1009.64 1009.46 1009.08 1008.90 1008.53 1008.08 1007.24
1019.41 1019.39 1019.29 1018.87 1018.50 1017.92 1017.73 1018.56 1019.31 1019.61 1018.01 1015.43 1014.49 1014.30 1012.71 1012.73 1013.02 1013.25 1013.37 1014.00 1014.62 1015.24 1015.70 1016.37 1015.78 1014.73 1014.74 1015.03 1015.48 1015.28 1014.67 1014.06 1012.79 1012.43 1012.70 1011.76 1009.99 1009.85 1009.65 1008.70 1007.91 1007.42 1006.62 1005.93 1005.55
1019.07 1019.01 1018.94 1018.63 1018.61 1018.31 1018.89 1019.41 1019.29 1019.42 1018.96 1015.37 1013.89 1013.39 1012.83 1012.78 1013.02 1013.11 1013.56 1013.94 1014.52 1015.29 1015.17 1014.96 1014.38 1014.38 1014.86 1014.93 1015.14 1014.00 1014.56 1013.31 1012.98 1012.75 1012.37 1011.65 1007.39 1008.73 1008.36 1007.57 1006.50 1005.61 1004.72 1004.54 1003.88
1018.74 1018.68 1018.59 1018.50 1018.88 1018.95 1018.90 1019.01 1019.20 1019.34 1018.55 1015.21 1013.57 1013.05 1012.68 1012.49 1013.12 1013.30 1013.55 1013.73 1014.36 1014.36 1014.98 1014.61 1013.31 1013.67 1014.04 1014.22 1014.19 1013.13 1012.91 1013.07 1013.14 1013.78 1013.11 1012.09 1006.27 1007.91 1007.33 1006.67 1005.66 1004.50 1003.55 1003.05 1002.81
1018.29 1018.20 1018.14 1018.34 1018.68 1018.86 1018.49 1018.47 1018.71 1019.46 1017.49 1014.03 1013.23 1012.91 1012.90 1013.35 1013.71 1013.82 1013.84 1013.74 1014.13 1014.26 1014.65 1013.49 1013.02 1013.27 1013.62 1012.37 1013.32 1012.11 1012.73 1013.04 1013.35 1013.68 1013.41 1012.17 1011.90 1005.45 1005.81 1005.61 1004.71 1003.24 1002.54 1002.02 1001.68
1018.30 1017.99 1018.14 1018.39 1018.53 1017.75 1017.79 1018.38 1018.59 1018.91 1016.41 1013.72 1013.04 1013.09 1013.38 1013.69 1014.01 1014.13 1013.96 1014.04 1014.38 1014.30 1014.09 1013.39 1012.79 1012.64 1012.09 1012.06 1012.20 1012.44 1012.84 1013.28 1014.21 1014.41 1013.65 1010.68 1011.04 1000.86 1004.99 1003.99 1003.06 1002.33 1001.44 1000.96 1000.49
1018.08 1017.63 1018.20 1017.99 1018.17 1017.77 1017.59 1018.15 1018.85 1017.27 1014.71 1014.00 1013.61 1013.47 1013.56 1013.59 1013.93 1014.16 1014.35 1014.33 1014.21 1014.47 1013.77 1013.05 1012.49 1011.68 1011.82 1012.55 1012.38 1012.61 1013.28 1014.32 1014.79 1015.09 1012.51 1009.49 1009.85 1003.29 1003.42 1002.73 1002.32 1001.49 1000.86 1000.15 999.97
1018.04 1017.92 1017.85 1017.81 1017.83 1017.97 1018.27 1018.51 1017.17 1015.40 1014.53 1012.88 1013.18 1013.46 1013.69 1013.66 1013.60 1013.80 1014.01 1014.24 1014.04 1013.79 1013.59 1013.13 1011.07 1011.39 1011.14 1011.69 1011.65 1012.01 1012.47 1013.21 1012.97 1012.96 1011.05 1009.90 1007.96 1003.54 1002.07 1001.02 1000.84 1000.62 1000.08 1000.10 999.92
1017.94 1018.01 1017.94 1017.32 1017.92 1018.17 1018.31 1017.55 1015.30 1014.32 1013.84 1013.41 1013.23 1013.16 1013.10 1013.12 1013.58 1013.85 1014.09 1013.24 1012.82 1012.98 1012.95 1012.33 1010.93 1010.69 1010.73 1010.93 1011.35 1011.60 1011.80 1010.83 1011.64 1011.71 1011.39 1008.89 1005.67 1003.67 1001.61 1001.48 1001.07 1000.98 1000.47 1000.50 1000.40
1018.36 1018.00 1017.33 1016.72 1017.50 1018.40 1018.18 1015.05 1014.57 1013.57 1013.23 1013.49 1013.22 1013.07 1012.65 1013.19 1013.52 1013.55 1013.11 1011.88 1011.84 1011.46 1011.12 1011.16 1011.05 1010.72 1011.22 1011.51 1011.10 1011.04 1011.02 1011.27 1011.43 1011.10 1009.94 1007.34 1005.57 1003.28 1001.30 1001.84 1001.21 1001.13 1000.88 1000.30 1000.14
1018.55 1017.89 1016.26 1016.30 1017.24 1017.83 1016.52 1014.60 1014.00 1013.29 1013.16 1013.61 1012.77 1013.13 1012.57 1012.63 1013.03 1012.63 1011.73 1011.02 1011.06 1011.29 1011.25 1011.42 1011.60 1011.64 1012.09 1011.34 1011.06 1011.44 1010.68 1010.56 1010.49 1009.70 1007.66 1005.92 1004.19 1000.91 1001.42 1001.73 1001.19 1001.13 1000.41 1000.33 1000.37
1018.32 1017.84 1015.84 1015.90 1017.05 1015.91 1014.69 1014.31 1013.89 1013.18 1012.97 1013.08 1012.96 1012.84 1012.89 1012.49 1012.29 1012.17 1011.34 1010.85 1010.07 1010.21 1011.08 1010.95 1011.15 1011.40 1010.83 1009.98 1010.28 1010.17 1009.62 1009.00 1008.49 1007.10 1005.92 1004.63 1002.44 1000.40 1000.76 1000.55 1000.82 1000.68 1000.44 999.90 1000.12
1018.32 1017.00 1016.17 1015.74 1015.42 1014.83 1014.32 1013.78 1013.53 1013.20 1013.02 1012.92 1012.70 1012.39 1012.49 1012.25 1011.96 1011.01 1010.87 1010.27 1010.43 1010.97 1010.65 1010.80 1010.70 1011.12 1010.79 1011.07 1009.54 1009.46 1007.86 1007.47 1006.75 1006.05 1004.76 1003.38 1001.43 999.13 999.82 999.39 1000.18 1000.14 1000.04 999.53 999.71
1018.58 1017.11 1016.40 1015.80 1014.93 1014.75 1014.41 1013.56 1013.42 1012.82 1012.63 1012.74 1012.93 1012.87 1012.69 1012.39 1012.23 1011.26 1010.75 1009.98 1009.73 1009.98 1010.26 1010.53 1010.52 1010.27 1009.66 1008.72 1007.97 1007.75 1006.98 1006.04 1006.12 1005.30 1002.90 1002.10 1000.48 1000.15 998.23 998.98 999.33 999.55 999.31 999.28 999.63
1018.92 1017.65 1016.63 1015.95 1015.44 1014.94 1014.95 1014.46 1013.65 1013.15 1013.00 1013.10 1012.94 1013.02 1013.45 1013.09 1012.72 1012.45 1012.10 1011.71 1011.54 1011.26 1011.01 1010.46 1009.45 1009.93 1009.28 1008.75 1008.33 1007.59 1006.37 1005.51 1005.09 1003.74 1002.81 1001.51 1001.44 1000.74 998.70 997.25 998.37 999.46 999.47 999.78 999.77
1019.29 1018.41 1017.68 1017.16 1016.61 1016.01 1015.53 1014.85 1014.40 1014.31 1014.41 1013.75 1014.09 1014.72 1014.95 1014.86 1015.19 1014.72 1014.52 1014.09 1013.32 1012.64 1012.92 1012.19 1009.93 1009.45 1008.17 1008.04 1007.45 1006.36 1005.50 1004.91 1003.91 1002.74 1002.20 1002.21 1000.97 1000.41 999.54 998.05 998.04 999.92 1000.57 1000.54 999.98
1019.39 1019.12 1019.28 1018.07 1017.62 1017.12 1016.32 1015.83 1015.45 1015.98 1015.62 1015.35 1015.90 1016.01 1015.63 1016.05 1016.35 1016.00 1015.61 1015.17 1015.00 1014.58 1013.41 1012.93 1011.59 1010.25 1008.04 1008.12 1007.39 1005.55 1004.20 1003.53 1003.38 1003.54 1003.14 1002.45 1001.08 1001.38 1000.92 1000.87 999.86 1000.75 1001.86 1002.21 1002.10
Wind_Speed
14 15 16 16 16 17 16 16 16 15 15 15 14 14 11 10 7 2 6 10 5 13 4 5 1 1 3 1 2 4 3 3 6 3 5 1 3 1 0 3 3 6 3 3 8
13 14 15 15 16 16 16 16 16 15 15 16 16 15 13 9 2 8 9 8 10 14 6 6 4 3 1 2 1 4 4 9 6 2 4 2 5 3 2 3 5 4 2 4 12
10 12 14 14 15 16 16 17 16 15 14 14 15 15 13 7 4 7 1 11 12 11 6 6 4 5 2 3 4 5 7 6 6 4 5 3 3 4 5 8 10 11 7 9 6
8 10 12 14 15 16 17 17 17 16 16 15 15 14 12 2 6 2 7 8 8 6 5 4 4 5 5 6 6 4 9 7 6 4 3 4 2 5 10 15 6 13 7 10 13
7 8 10 12 14 16 17 18 18 16 14 14 13 10 3 1 11 4 8 7 6 6 7 7 5 6 6 5 2 6 6 7 7 6 7 1 11 8 14 11 10 6 8 15 16
8 8 9 11 13 16 18 19 19 16 15 14 12 5 3 4 3 8 8 6 5 5 5 7 8 7 4 5 6 3 5 7 6 6 5 5 8 5 19 4 13 11 13 14 19
7 8 10 11 14 16 18 20 20 17 16 14 8 2 2 16 1 7 8 4 1 3 4 4 3 3 1 5 3 4 9 8 11 8 10 6 13 14 28 3 10 12 12 14 19
7 9 11 12 14 17 20 20 20 19 17 11 6 3 9 2 4 5 4 1 0 3 1 3 3 2 2 4 8 4 3 5 1 5 5 10 19 15 11 8 17 13 12 10 16
8 9 11 14 16 18 21 23 20 15 5 5 4 5 9 1 3 6 6 3 3 3 4 2 3 3 2 3 5 3 7 8 14 11 6 8 12 12 6 8 13 11 12 11 14
9 9 12 14 16 20 24 22 5 2 2 2 2 2 4 7 4 4 5 6 3 5 3 3 4 2 1 5 9 9 6 6 8 3 4 7 16 15 11 6 12 12 11 11 14
8 9 11 14 16 19 13 5 7 4 4 6 5 5 3 1 2 5 4 7 5 3 6 4 5 11 22 18 18 2 6 10 8 7 5 11 18 20 20 8 13 17 18 16 17
8 8 9 13 15 19 4 6 2 3 10 8 13 9 9 4 3 4 5 6 5 7 5 1 9 19 7 6 8 11 19 20 18 17 6 16 24 14 12 19 19 19 21 22 20
8 7 6 12 14 4 3 2 2 4 3 11 6 5 5 9 9 6 10 5 5 7 10 16 11 12 10 8 9 16 15 18 19 6 5 12 26 14 10 17 21 22 22 21 24
10 7 3 10 2 3 2 2 1 2 2 9 3 2 2 4 3 2 2 4 4 10 7 9 10 16 7 8 14 20 14 16 14 1 10 3 30 2 8 15 17 21 19 20 22
9 9 6 1 1 1 3 3 4 2 8 4 2 2 3 4 1 4 2 3 4 3 4 11 4 5 10 22 10 17 6 8 3 4 4 7 7 3 9 10 18 22 20 18 20
7 6 7 3 1 5 2 1 3 4 10 5 1 2 4 1 1 2 3 3 0 3 5 14 3 5 9 4 9 1 2 3 4 3 6 14 11 31 8 13 10 12 19 19 18
6 3 7 2 2 1 1 3 3 6 4 3 1 2 3 5 4 6 6 6 7 2 4 3 7 5 6 5 3 5 5 4 4 0 12 3 9 30 6 6 11 16 17 19 17
9 1 5 2 4 1 3 2 11 6 6 4 4 3 6 6 7 7 5 5 6 2 2 3 19 9 5 13 9 10 12 9 10 11 16 7 9 18 13 13 14 14 18 15 14
9 1 2 4 6 3 3 5 7 7 6 4 6 6 6 5 6 5 7 6 9 16 12 6 12 2 5 3 9 3 8 15 5 1 2 7 17 17 12 10 9 11 12 15 11
2 2 4 6 11 3 3 22 8 6 7 4 7 7 9 4 3 6 8 4 6 14 10 6 11 2 4 2 4 7 1 2 2 4 7 8 7 16 19 10 15 14 13 16 11
1 3 4 11 7 3 11 9 6 6 6 8 11 15 16 16 11 9 8 4 5 6 8 2 6 10 1 8 7 1 5 5 2 5 15 18 13 32 24 10 9 10 8 8 9
2 5 3 11 6 4 14 10 9 11 6 10 5 15 19 17 23 25 25 21 3 3 7 9 5 7 20 18 6 7 12 17 13 16 11 17 18 29 20 6 8 9 10 5 5
4 4 4 4 10 13 8 9 9 17 16 5 10 12 19 22 21 21 23 19 20 17 7 6 4 7 5 10 19 16 18 21 17 18 23 22 19 30 25 25 12 10 13 9 6
3 3 3 5 8 8 14 18 18 7 13 10 15 15 19 22 23 26 31 13 8 13 17 7 17 18 20 19 3 6 19 22 23 17 25 22 29 30 35 25 22 20 23 20 17
2 5 2 4 10 12 13 11 16 17 7 3 5 11 9 9 12 12 12 12 12 19 10 8 20 20 24 29 29 29 28 26 23 24 18 23 23 22 32 33 23 13 9 8 9
3 3 4 5 4 3 5 4 10 4 6 5 7 7 7 4 6 10 6 3 2 8 8 9 10 17 25 25 28 32 32 32 35 33 28 29 30 30 34 33 30 22 21 17 16
2 2 2 4 2 1 3 5 4 6 5 8 6 9 10 8 11 15 15 15 17 19 22 9 7 10 21 14 17 24 31 31 32 28 23 27 30 28 27 24 26 18 14 14 14
Wind_Direction
21 17 12 8 4 359 357 356 355 353 350 346 345 344 340 326 305 208 237 220 188 165 150 122 174 194 89 308 182 97 65 245 253 228 262 355 241 282 291 142 232 206 176 322 131
14 10 7 3 357 352 348 346 346 346 346 343 341 341 340 336 269 244 242 182 151 146 127 151 172 135 31 235 217 114 149 226 218 242 246 245 200 236 216 212 245 261 89 85 138
358 358 357 353 350 344 340 338 336 337 338 338 336 337 333 320 327 246 152 165 157 168 148 162 116 146 218 156 208 187 216 220 256 234 204 219 243 210 201 247 215 213 192 161 164
345 348 347 343 339 338 334 331 328 329 332 332 332 331 327 282 286 203 155 160 155 159 130 165 163 175 206 215 206 216 241 227 263 249 260 223 253 242 203 237 206 226 168 167 182
340 336 333 332 331 330 327 324 322 322 321 321 325 331 357 355 253 147 145 148 137 145 176 177 171 172 201 205 245 230 251 245 243 272 252 299 244 232 260 242 247 256 170 188 197
333 329 324 322 319 320 318 315 313 312 312 312 315 315 125 240 226 155 149 145 179 167 192 163 203 206 240 227 188 253 264 268 272 242 250 200 277 143 257 206 228 225 213 207 206
321 322 319 316 314 312 310 308 307 305 303 299 289 229 177 233 341 154 151 195 240 193 188 207 183 156 339 294 280 295 305 315 254 218 235 138 287 229 253 195 248 242 231 219 221
315 318 313 312 310 310 309 308 305 300 293 278 210 168 242 319 116 129 173 265 163 209 357 8 120 168 185 309 356 327 332 317 299 137 247 140 258 255 260 206 255 244 251 237 235
305 312 310 311 312 311 310 307 303 293 251 157 136 160 259 127 180 209 155 196 118 74 52 65 89 183 355 100 358 287 246 225 304 194 158 179 243 273 268 204 257 262 252 244 254
291 302 305 309 315 319 321 313 289 4 83 196 271 44 267 227 190 175 178 145 128 109 74 114 60 176 351 122 224 221 221 253 242 251 190 231 248 265 266 209 249 269 272 260 253
281 296 306 312 319 326 341 4 11 4 24 213 225 250 283 104 64 203 163 122 108 105 178 192 134 210 227 211 229 193 224 232 248 249 205 234 240 247 267 247 244 254 259 253 247
273 289 311 313 323 328 12 66 149 218 304 262 250 252 255 170 214 240 117 142 144 197 141 144 214 227 240 215 226 243 253 260 269 261 229 265 258 244 246 262 260 246 248 251 251
269 280 314 308 320 26 48 107 290 145 242 286 226 222 252 166 227 241 144 143 167 179 204 225 227 226 221 233 233 231 233 250 255 298 233 295 276 231 241 248 267 260 250 258 253
252 257 269 300 46 328 98 228 67 122 340 275 275 288 2 173 203 17 316 149 209 224 211 236 243 224 194 221 210 263 218 251 260 283 272 142 294 160 209 232 248 262 257 248 249
241 235 192 182 200 349 223 193 125 74 301 251 208 308 18 136 56 7 301 69 223 183 158 243 196 188 218 234 184 259 186 227 226 200 341 182 257 237 216 234 246 251 256 250 247
271 264 175 139 165 224 223 337 83 43 252 298 121 64 89 47 348 5 80 35 139 248 215 248 225 200 219 196 198 177 85 51 51 97 279 227 188 283 195 209 235 254 255 258 252
295 203 171 162 259 113 87 67 325 222 342 286 301 184 203 197 213 177 172 179 189 297 257 327 229 230 167 238 184 170 99 296 330 84 229 168 173 257 262 258 223 234 254 256 258
332 238 226 212 153 100 56 69 219 197 240 257 205 154 203 166 242 194 172 230 250 182 280 210 289 176 167 204 198 205 195 186 202 243 259 108 230 261 226 237 245 238 248 264 271
327 239 202 206 169 98 119 213 232 185 205 246 310 273 231 228 221 139 220 231 207 185 200 196 257 193 188 174 156 197 193 231 290 17 29 259 273 298 268 272 294 272 265 268 272
309 234 209 172 149 110 244 236 236 203 159 195 224 207 252 244 220 191 189 214 226 191 213 252 268 349 16 336 252 192 183 83 218 202 234 225 244 259 275 288 277 289 276 279 274
278 257 241 146 130 196 225 233 248 209 173 215 247 258 264 277 225 235 253 249 217 217 187 207 226 262 4 205 221 245 246 227 240 197 255 263 253 260 277 264 272 279 307 321 279
252 236 185 148 198 205 231 220 219 230 201 242 242 252 261 272 270 266 261 241 202 201 223 208 187 217 242 266 221 218 247 238 236 245 237 253 251 268 270 253 275 264 288 244 260
245 228 188 210 229 225 225 244 237 253 241 217 237 231 249 252 266 254 259 262 267 261 231 183 230 257 199 274 270 245 245 233 248 255 251 255 258 262 268 269 242 259 284 286 299
284 265 200 227 240 248 241 245 244 227 254 243 253 262 271 267 266 270 269 266 240 234 242 219 248 246 257 258 237 230 235 244 241 250 252 249 259 267 270 266 265 265 271 284 290
264 248 281 226 228 246 247 271 263 265 228 57 240 245 264 278 293 290 293 309 307 298 283 229 252 247 250 252 262 258 260 260 242 239 240 256 257 257 269 268 269 268 288 312 298
283 337 352 289 312 282 246 212 254 273 266 251 240 30 351 306 327 300 348 14 279 326 335 315 283 282 271 253 242 249 255 256 256 256 263 262 258 255 264 277 282 279 291 280 279
292 31 338 280 327 337 248 271 281 17 251 242 356 333 307 313 317 295 289 272 258 269 280 262 279 282 272 290 298 278 244 254 259 267 257 259 260 266 273 281 291 313 23 24 5